Flag for Canada Weather past 2 weeks in Resolute Bay, Nunavut, Canada

-31 °F

Snow flurries. Scattered clouds.

Feels Like: -56 °F
Forecast: N/A
Wind: 12 mph from North

Location: Resolute

Current Time: Nov 29, 2015 at 5:38:14 PM

Latest Report: Nov 29, 2015 at 5:00 PM

Visibility: 15 mi

Pressure: 29.70 "Hg

Humidity: 67%

Dew point: -38 °F

Location of Resolute BayLocation

Historic Weather in Resolute Bay — Graph


Resolute Bay temperature yesterday

Maximum temperature yesterday: -9 °F (at 12:00 AM)
Minimum temperature yesterday: -17 °F (at 4:00 PM)
Average temperature yesterday: -13 °F

Past Weeks' High & Low Weather Summary

High19 °F (Nov 14, 10:00 PM)93% (Nov 14, 6:00 PM)30.30 "Hg (Nov 14, 6:00 PM)
Low-29 °F (Nov 29, 4:00 PM)51% (Nov 17, 7:00 AM)28.98 "Hg (Nov 19, 2:53 AM)
Average-5 °F80%29.76 "Hg
* Reported Nov 14 4:00 PM — Nov 29 4:00 PM, Resolute Bay, Weather by CustomWeather, © 2015

Note: Actual official high and low records may vary slightly from our data, if they occured in-between our weather recording intervals... More about our weather records


Resolute Bay weather history for previous 24 hours

Time TempWeatherWind HumidityBarometerVisibility
4:00 PM
Sun, Nov 29
-29 °FSnow flurries. Scattered clouds.10 mph74%29.69 "Hg15 mi
3:00 PM-27 °FSnow flurries. Scattered clouds.20 mph67%29.67 "Hg15 mi
2:00 PM-26 °FSnow flurries. Overcast.21 mph67%29.67 "Hg15 mi
1:00 PM-24 °FSnow flurries. Partly sunny.14 mph75%29.65 "Hg12 mi
12:00 PM-26 °FSnow flurries. Scattered clouds.15 mph75%29.65 "Hg15 mi
11:00 AM-24 °FSnow flurries. Partly sunny.10 mph75%29.64 "Hg12 mi
10:00 AM-22 °FSnow flurries. Partly sunny.14 mph75%29.63 "Hg12 mi
9:00 AM-22 °FSnow flurries. Scattered clouds.10 mph75%29.64 "Hg15 mi
8:00 AM-24 °FSnow flurries. Scattered clouds.12 mph75%29.63 "Hg15 mi
7:00 AM-22 °FSnow flurries. Passing clouds.15 mph75%29.65 "Hg15 mi
6:00 AM-17 °FLight snow. Scattered clouds.14 mph76%29.64 "Hg15 mi
5:00 AM-13 °FLight snow. Passing clouds.13 mph76%29.65 "Hg8 mi
4:00 AM-9 °FLight snow. Overcast.8 mph77%29.66 "Hg6 mi
3:00 AM-11 °FLight snow. Passing clouds.6 mph84%29.67 "Hg4 mi
2:00 AM-13 °FLight snow. Overcast.3 mph76%29.68 "Hg5 mi
1:00 AM-18 °FSnow flurries. Passing clouds.5 mph75%29.68 "Hg15 mi
12:00 AM-17 °FSnow flurries. Passing clouds.8 mph76%29.69 "Hg15 mi
11:00 PM
Sat, Nov 28
-15 °FLight snow. Mostly cloudy.8 mph76%29.70 "Hg15 mi
10:00 PM-17 °FLight snow. Mostly cloudy.7 mph83%29.71 "Hg15 mi
9:00 PM-17 °FSnow flurries. Passing clouds.9 mph76%29.72 "Hg15 mi
8:00 PM-17 °FSnow flurries. Passing clouds.6 mph76%29.73 "Hg15 mi
7:00 PM-17 °FSnow flurries. Passing clouds.8 mph76%29.74 "Hg15 mi
6:00 PM-17 °FSnow flurries. Passing clouds.8 mph76%29.74 "Hg15 mi
5:00 PM-15 °FSnow flurries. Passing clouds.8 mph76%29.75 "Hg15 mi
Weather by CustomWeather, © 2015

See weather overviewHow to use our weather pages